STARLINK-11150, 60406

Orbit data source: Space-Track

STARLINK-11150, 60406 is a payload satellite owned by SpaceX/Seattle (US) in LEO that was launched on Sat, 10 Aug 2024 UTC via an FALCON 9 launch vehicle from the Air Force Eastern Test Range (AFETR). Payload-class satellites include a variety of spacecraft equipped with specific instruments for various scientific and technological missions. These include communications satellites like Starlink; space stations such as the ISS; scientific satellites like the Hubble; Earth observation satellites from companies like Planet Labs, Umbra, and HawkEye 360; GPS; miniature CubeSats for education and research; and military/defense satellites.

Loading next visibility...
Identifier
60406, 2024-141J
Orbit
LEO
Last TLE update
16 hours ago
Origin
Manufacturer
SpaceX/Seattle
Mission
Operational Commercial Communications
Bus & Motor
STARLINK V2M, Unknown motor
Mass
730 kg wet, ~700 kg dry
Launch date (UTC)
2024-08-10 (11 months ago)
Launch vehicle
FALCON 9
Launch site
Air Force Eastern Test Range (AFETR)
Object type
Payload
Rocket body
Debris
Shape & HBR
Box + 2 Pan, 29 m
Radar Cross Section
36.964 m², Large (>1 m²)

Expand to show TLE details & history

TLE from 16 hours ago
0 STARLINK-11150
1 60406U 24141J   25186.48245443 -.00000842  00000-0 -20885-5 0  9998
2 60406  53.1589 225.0857 0001170 132.8854 227.2262 15.69704518 52914
Epoch: 2025-07-05T11:34Z
TLE epoch observation values (Epoch: 2025-07-05T11:34:44.062Z)
Latitude
-0.00006°
Longitude
127.6822°
Altitude
361.193 km
Speed
7.694 km/s
True Right ascension
15h 00m 20s
True Declination
0° 00' 00"
Sunlit
Object was in full shadow at epoch
Visualization orbit readout
Latitude
8.43408°
Longitude
-61.94721°
Altitude
359.304 km
Speed
7.696 km/s
Apparent Right ascension
02h 51m 23s
Apparent Declination
-15° 07' 09"
Sunlit
Object is in daylight
Visualization observer readout
Local Sidereal Time
15:31:43
Azimuth
22.409° NNE
Elevation
-63.684°
Doppler factor
1
Orbital elements
Apogee altitude
360.792 km
Perigee altitude
359.215 km
Semi-major axis
6,738.14 km
Eccentricity
0.00012
Inclination
53.1589°
RAAN
225.0857°
Arg. of periapsis
132.8854°
True anomaly
Unknown
Mean anomaly
227.2262°
Eccentric anomaly
Unknown
Mean motion
3.92404 °/min
Orbital period
91.74 mins
BSTAR
-0.0000020885
Loading maneuver chart data...
Loading SW <> Apogee altitude chart data...
Loading historical data...
Loading historical data...
Loading historical data...
Loading historical data...
Loading historical data...
Loading historical data...
Loading historical data...

STARLINK-11150 Visibility forecast

Observer location: undefined°, undefined°

Span
Click to sort rows by Start time (UTC) header in descending order
Start Az.
Max El. time (UTC)
Max El. Az.
Max El.
End time (UTC)
End Az.
4 mins2025-07-06 04:32:41.227Z186.901° SSW2025-07-06 04:34:41.227Z145.186° SSE20.898°2025-07-06 04:36:41.227Z87.995° E
4 mins2025-07-06 12:33:41.227Z278.287° WNW2025-07-06 12:34:41.227Z240.856° WSW31.742°2025-07-06 12:37:41.227Z154.345° SSE
|